DUZEAR1 KGGG-KSHV

Flight info

Callsign DUZEAR1
Flight time 0h 23m
Altitude 9000
Route KGGG/18 N0257F090 DCT BOYAN DCT AMUTE DCT KAPPS DCT MRPHI DCT PODCI DCT SHRLY DCT CADOZ DCT KSHV/14
Aircraft PC12/L-SDE2FGIRWY/SB1

Departure

Time 2026-04-27 19:30
Airport East Texas Regional Airport (KGGG)

Arrival

Time 2026-04-27 19:54
Airport Shreveport Regional Airport (KSHV)
Time Latitude Longitude Altitude Speed Heading
2026-04-27 19:06 32.38951 -94.71939 362 ft 0 kts 136°
2026-04-27 19:28 32.38949 -94.71934 366 ft 2 kts 85°
2026-04-27 19:28 32.39012 -94.71949 365 ft 20 kts 317°
2026-04-27 19:28 32.39123 -94.72085 363 ft 22 kts 319°
2026-04-27 19:29 32.39256 -94.71995 362 ft 24 kts 43°
2026-04-27 19:29 32.39334 -94.71905 365 ft 11 kts 43°
2026-04-27 19:29 32.39388 -94.71816 364 ft 18 kts 84°
2026-04-27 19:29 32.39371 -94.71681 366 ft 15 kts 150°
2026-04-27 19:30 32.39177 -94.71666 365 ft 55 kts 180°
2026-04-27 19:30 32.38599 -94.71654 439 ft 106 kts 180°
2026-04-27 19:30 32.37706 -94.71626 846 ft 141 kts 179°
2026-04-27 19:30 32.36704 -94.71596 1477 ft 146 kts 185°
2026-04-27 19:31 32.35688 -94.71567 2283 ft 146 kts 185°
2026-04-27 19:31 32.34656 -94.71556 3058 ft 150 kts 185°
2026-04-27 19:31 32.33621 -94.71529 3801 ft 150 kts 186°
2026-04-27 19:31 32.32578 -94.71499 4493 ft 155 kts 183°
2026-04-27 19:32 32.31542 -94.71086 5408 ft 151 kts 157°
2026-04-27 19:32 32.30791 -94.70231 6327 ft 158 kts 132°
2026-04-27 19:32 32.30428 -94.68954 7044 ft 175 kts 101°
2026-04-27 19:32 32.30660 -94.67515 7816 ft 185 kts 65°
2026-04-27 19:33 32.31354 -94.66212 8520 ft 192 kts 56°
2026-04-27 19:33 32.31856 -94.65304 8831 ft 196 kts 56°
2026-04-27 19:33 32.33199 -94.63634 9016 ft 236 kts 25°
2026-04-27 19:33 32.34795 -94.62900 9020 ft 255 kts 13°
2026-04-27 19:34 32.36514 -94.62258 9016 ft 264 kts 13°
2026-04-27 19:34 32.38279 -94.61574 9011 ft 268 kts 14°
2026-04-27 19:34 32.40048 -94.60867 9011 ft 269 kts 14°
2026-04-27 19:34 32.41761 -94.59949 9002 ft 274 kts 29°
2026-04-27 19:35 32.43250 -94.58530 8999 ft 275 kts 39°
2026-04-27 19:35 32.44683 -94.57027 9003 ft 276 kts 39°
2026-04-27 19:35 32.46130 -94.55529 8999 ft 276 kts 39°
2026-04-27 19:35 32.47574 -94.54032 8998 ft 277 kts 39°
2026-04-27 19:36 32.49023 -94.52525 8996 ft 277 kts 39°
2026-04-27 19:36 32.50468 -94.51020 8994 ft 277 kts 39°
2026-04-27 19:36 32.51956 -94.49570 8995 ft 275 kts 33°
2026-04-27 19:36 32.53511 -94.48245 8998 ft 275 kts 33°
2026-04-27 19:37 32.55067 -94.46917 8999 ft 277 kts 33°
2026-04-27 19:37 32.56624 -94.45573 9001 ft 276 kts 33°
2026-04-27 19:37 32.58175 -94.44237 9003 ft 276 kts 33°
2026-04-27 19:37 32.59732 -94.42895 9003 ft 277 kts 33°
2026-04-27 19:38 32.61291 -94.41553 8998 ft 276 kts 33°
2026-04-27 19:38 32.62845 -94.40212 8999 ft 277 kts 33°
2026-04-27 19:38 32.64406 -94.38862 8997 ft 277 kts 33°
2026-04-27 19:38 32.65962 -94.37521 8999 ft 276 kts 33°
2026-04-27 19:39 32.67523 -94.36176 8996 ft 278 kts 33°
2026-04-27 19:39 32.69083 -94.34829 8993 ft 277 kts 33°
2026-04-27 19:39 32.70644 -94.33478 8993 ft 278 kts 33°
2026-04-27 19:39 32.72206 -94.32129 8994 ft 277 kts 33°
2026-04-27 19:40 32.73663 -94.30703 8983 ft 253 kts 46°
2026-04-27 19:40 32.74676 -94.29055 8978 ft 249 kts 61°
2026-04-27 19:40 32.75364 -94.27195 8974 ft 242 kts 71°
2026-04-27 19:40 32.75983 -94.25340 8976 ft 241 kts 70°
2026-04-27 19:41 32.76609 -94.23492 8979 ft 242 kts 70°
2026-04-27 19:41 32.77235 -94.21626 8981 ft 244 kts 70°
2026-04-27 19:41 32.77859 -94.19749 8975 ft 244 kts 70°
2026-04-27 19:41 32.78410 -94.17846 8837 ft 243 kts 81°
2026-04-27 19:42 32.78480 -94.15889 8572 ft 234 kts 102°
2026-04-27 19:42 32.77964 -94.14142 8275 ft 219 kts 129°
2026-04-27 19:42 32.77172 -94.12678 7994 ft 195 kts 132°
2026-04-27 19:42 32.76358 -94.11544 7729 ft 175 kts 150°
2026-04-27 19:43 32.75722 -94.10964 7579 ft 174 kts 153°
2026-04-27 19:43 32.75375 -94.10649 7494 ft 162 kts 153°
2026-04-27 19:43 32.74437 -94.09803 7278 ft 170 kts 152°
2026-04-27 19:43 32.73506 -94.08943 7053 ft 171 kts 153°
2026-04-27 19:44 32.72570 -94.08094 6823 ft 169 kts 153°
2026-04-27 19:44 32.71637 -94.07255 6476 ft 181 kts 152°
2026-04-27 19:44 32.70554 -94.06274 6194 ft 183 kts 150°
2026-04-27 19:44 32.69635 -94.05405 5956 ft 159 kts 152°
2026-04-27 19:45 32.68721 -94.04584 5748 ft 169 kts 153°
2026-04-27 19:45 32.67814 -94.03761 5535 ft 167 kts 153°
2026-04-27 19:45 32.66912 -94.02944 5333 ft 162 kts 152°
2026-04-27 19:45 32.66020 -94.02138 5128 ft 161 kts 153°
2026-04-27 19:46 32.65134 -94.01337 4931 ft 163 kts 153°
2026-04-27 19:46 32.64220 -94.00515 4724 ft 161 kts 153°
2026-04-27 19:46 32.63348 -93.99728 4517 ft 158 kts 152°
2026-04-27 19:46 32.62477 -93.98940 4315 ft 158 kts 153°
2026-04-27 19:47 32.61594 -93.98143 4112 ft 159 kts 153°
2026-04-27 19:47 32.60724 -93.97355 3902 ft 157 kts 153°
2026-04-27 19:47 32.59870 -93.96579 3722 ft 154 kts 153°
2026-04-27 19:47 32.59007 -93.95803 3521 ft 155 kts 152°
2026-04-27 19:48 32.58170 -93.95044 3313 ft 144 kts 152°
2026-04-27 19:48 32.57382 -93.94326 3127 ft 131 kts 153°
2026-04-27 19:48 32.56742 -93.93730 2974 ft 109 kts 155°
2026-04-27 19:48 32.56118 -93.93174 2845 ft 113 kts 155°
2026-04-27 19:49 32.55525 -93.92636 2703 ft 106 kts 156°
2026-04-27 19:49 32.54920 -93.92093 2571 ft 112 kts 154°
2026-04-27 19:49 32.54313 -93.91542 2430 ft 106 kts 154°
2026-04-27 19:49 32.53718 -93.91004 2308 ft 110 kts 154°
2026-04-27 19:50 32.53114 -93.90459 2161 ft 108 kts 154°
2026-04-27 19:50 32.52546 -93.89941 2022 ft 96 kts 157°
2026-04-27 19:50 32.52047 -93.89483 1898 ft 89 kts 158°
2026-04-27 19:50 32.51551 -93.89040 1789 ft 90 kts 158°
2026-04-27 19:51 32.51039 -93.88578 1681 ft 94 kts 155°
2026-04-27 19:51 32.50516 -93.88107 1552 ft 95 kts 156°
2026-04-27 19:51 32.49976 -93.87626 1426 ft 98 kts 153°
2026-04-27 19:51 32.49433 -93.87142 1297 ft 96 kts 153°
2026-04-27 19:52 32.48943 -93.86699 1172 ft 85 kts 158°
2026-04-27 19:52 32.48477 -93.86259 1078 ft 91 kts 151°
2026-04-27 19:52 32.47934 -93.85791 952 ft 102 kts 152°
2026-04-27 19:52 32.47377 -93.85295 814 ft 98 kts 149°
2026-04-27 19:53 32.46390 -93.84389 541 ft 82 kts 146°
2026-04-27 19:53 32.45936 -93.83984 425 ft 80 kts 143°
2026-04-27 19:53 32.45505 -93.83598 333 ft 76 kts 144°
2026-04-27 19:54 32.45111 -93.83243 255 ft 56 kts 142°
2026-04-27 19:54 32.44874 -93.83032 245 ft 30 kts 143°
2026-04-27 19:54 32.44839 -93.82919 245 ft 13 kts 56°
2026-04-27 19:54 32.44934 -93.82809 249 ft 16 kts 28°
2026-04-27 19:55 32.44990 -93.82788 250 ft 0 kts 11°
2026-04-27 19:55 32.44996 -93.82786 250 ft 7 kts 11°
2026-04-27 19:56 32.45083 -93.82751 250 ft 15 kts 347°
2026-04-27 19:56 32.45163 -93.82749 252 ft 7 kts
2026-04-27 19:56 32.45208 -93.82704 254 ft 7 kts 87°
2026-04-27 19:56 32.45211 -93.82636 253 ft 5 kts 86°
2026-04-27 19:57 32.45197 -93.82630 252 ft 3 kts 181°
2026-04-27 19:57 32.45193 -93.82630 252 ft 0 kts 180°